ARG1483 SANT-SAEZ

Flight info

Callsign ARG1483
Flight time N/A
Altitude 37000
Route PUBER3E PUBER UL550 ROS UT672 MULTA UW24 SNT SNT7U
Aircraft B38M/M-MSDFGHILORVW/SB1

Departure

Time 2026-04-23 22:59
Airport Teniente Benjamín Matienzo International Airport (SANT)

Arrival

Time N/A
Airport Ezeiza International Airport - Ministro Pistarini (SAEZ)
Time Latitude Longitude Altitude Speed Heading
2026-04-23 22:58 -26.86566 -65.10665 2813 ft 172 kts 162°
2026-04-23 22:59 -26.87657 -65.09949 3092 ft 195 kts 139°
2026-04-23 22:59 -26.88666 -65.08760 3349 ft 225 kts 139°
2026-04-23 22:59 -26.90037 -65.07737 3711 ft 247 kts 151°
2026-04-23 22:59 -26.91566 -65.06735 4277 ft 263 kts 150°
2026-04-23 23:00 -26.93161 -65.05678 5055 ft 267 kts 150°
2026-04-23 23:00 -26.94766 -65.04608 5880 ft 271 kts 149°
2026-04-23 23:00 -26.96393 -65.03520 6671 ft 274 kts 149°
2026-04-23 23:00 -26.98032 -65.02423 7392 ft 280 kts 148°
2026-04-23 23:01 -26.99718 -65.01293 8105 ft 285 kts 148°
2026-04-23 23:01 -27.01418 -65.00154 8817 ft 290 kts 148°
2026-04-23 23:01 -27.03167 -64.98981 9562 ft 295 kts 148°
2026-04-23 23:01 -27.04949 -64.97785 10260 ft 300 kts 148°
2026-04-23 23:02 -27.06787 -64.96551 10636 ft 318 kts 149°
2026-04-23 23:02 -27.08736 -64.95242 11016 ft 333 kts 149°
2026-04-23 23:02 -27.10749 -64.93890 11658 ft 337 kts 149°
2026-04-23 23:02 -27.12773 -64.92529 12395 ft 341 kts 149°
2026-04-23 23:03 -27.14822 -64.91151 13132 ft 345 kts 150°
2026-04-23 23:03 -27.16894 -64.89757 13897 ft 349 kts 150°
2026-04-23 23:03 -27.18991 -64.88347 14546 ft 354 kts 151°
2026-04-23 23:03 -27.21123 -64.86911 15212 ft 359 kts 151°
2026-04-23 23:04 -27.23275 -64.85460 15868 ft 364 kts 152°
2026-04-23 23:04 -27.25446 -64.83997 16513 ft 369 kts 152°
2026-04-23 23:04 -27.27666 -64.82500 17153 ft 374 kts 152°
2026-04-23 23:04 -27.29914 -64.80983 17789 ft 379 kts 153°
2026-04-23 23:05 -27.32186 -64.79449 18403 ft 384 kts 153°
2026-04-23 23:05 -27.34493 -64.77890 18923 ft 388 kts 153°
2026-04-23 23:05 -27.36823 -64.76315 19449 ft 393 kts 153°
2026-04-23 23:05 -27.38383 -64.75261 19803 ft 396 kts 153°
2026-04-23 23:06 -27.41566 -64.73108 20513 ft 401 kts 153°
2026-04-23 23:06 -27.43160 -64.72028 20890 ft 403 kts 153°
2026-04-23 23:06 -27.46371 -64.69855 21593 ft 409 kts 153°
2026-04-23 23:06 -27.48826 -64.68192 22080 ft 414 kts 153°
2026-04-23 23:07 -27.50473 -64.67077 22417 ft 417 kts 153°
2026-04-23 23:07 -27.53010 -64.65362 22932 ft 421 kts 153°
2026-04-23 23:07 -27.55508 -64.63689 23434 ft 426 kts 153°
2026-04-23 23:07 -27.58070 -64.61972 23897 ft 430 kts 153°
2026-04-23 23:08 -27.60655 -64.60239 24344 ft 434 kts 154°
2026-04-23 23:08 -27.63267 -64.58485 24800 ft 437 kts 154°
2026-04-23 23:08 -27.65892 -64.56722 25255 ft 441 kts 155°
2026-04-23 23:08 -27.68533 -64.54946 25673 ft 445 kts 155°
2026-04-23 23:09 -27.71199 -64.53153 26102 ft 448 kts 156°
2026-04-23 23:09 -27.73891 -64.51341 26529 ft 451 kts 156°
2026-04-23 23:09 -27.76601 -64.49516 26951 ft 454 kts 157°
2026-04-23 23:09 -27.79327 -64.47679 27370 ft 457 kts 157°
2026-04-23 23:10 -27.82036 -64.45852 27772 ft 460 kts 158°
2026-04-23 23:10 -27.84801 -64.43987 28177 ft 463 kts 158°
2026-04-23 23:10 -27.87583 -64.42109 28569 ft 466 kts 158°
2026-04-23 23:10 -27.90381 -64.40218 28980 ft 470 kts 158°
2026-04-23 23:11 -27.93198 -64.38315 29330 ft 474 kts 158°
2026-04-23 23:11 -27.96035 -64.36396 29713 ft 476 kts 159°
2026-04-23 23:11 -27.98892 -64.34462 30058 ft 479 kts 159°
2026-04-23 23:11 -28.01755 -64.32524 30387 ft 482 kts 159°
2026-04-23 23:12 -28.04645 -64.30565 30671 ft 485 kts 159°
2026-04-23 23:12 -28.07557 -64.28590 30945 ft 489 kts 159°
2026-04-23 23:12 -28.10491 -64.26600 31219 ft 492 kts 159°
2026-04-23 23:12 -28.13442 -64.24597 31523 ft 496 kts 158°
2026-04-23 23:13 -28.16409 -64.22581 31730 ft 501 kts 158°
2026-04-23 23:13 -28.19406 -64.20544 32020 ft 503 kts 158°
2026-04-23 23:13 -28.22418 -64.18496 32298 ft 506 kts 158°
2026-04-23 23:13 -28.25413 -64.16458 32544 ft 510 kts 158°
2026-04-23 23:14 -28.28464 -64.14381 32818 ft 513 kts 158°
2026-04-23 23:14 -28.31527 -64.12295 33076 ft 516 kts 158°
2026-04-23 23:14 -28.34618 -64.10188 33330 ft 519 kts 158°
2026-04-23 23:14 -28.37721 -64.08073 33619 ft 522 kts 159°
2026-04-23 23:15 -28.40855 -64.05933 33811 ft 526 kts 159°
2026-04-23 23:15 -28.44000 -64.03784 34058 ft 529 kts 158°
2026-04-23 23:15 -28.47164 -64.01622 34327 ft 530 kts 158°
2026-04-23 23:15 -28.50300 -63.99477 34541 ft 533 kts 158°
2026-04-23 23:16 -28.53483 -63.97298 34765 ft 535 kts 158°
2026-04-23 23:16 -28.56681 -63.95108 34988 ft 537 kts 158°
2026-04-23 23:16 -28.59889 -63.92909 35256 ft 538 kts 158°
2026-04-23 23:16 -28.63104 -63.90704 35554 ft 538 kts 158°
2026-04-23 23:17 -28.66308 -63.88504 35844 ft 538 kts 158°
2026-04-23 23:17 -28.69518 -63.86300 36131 ft 539 kts 158°
2026-04-23 23:17 -28.72726 -63.84094 36432 ft 538 kts 158°
2026-04-23 23:17 -28.75933 -63.81889 36701 ft 539 kts 158°
2026-04-23 23:18 -28.79110 -63.79701 36975 ft 539 kts 157°
2026-04-23 23:18 -28.82320 -63.77472 37170 ft 540 kts 157°
2026-04-23 23:18 -28.85529 -63.75243 37127 ft 539 kts 158°
2026-04-23 23:19 -28.91921 -63.70798 37106 ft 537 kts 158°
2026-04-23 23:19 -28.98312 -63.66348 37097 ft 537 kts 158°
2026-04-23 23:20 -29.04700 -63.61894 37102 ft 537 kts 157°
2026-04-23 23:20 -29.11102 -63.57421 37097 ft 538 kts 158°
2026-04-23 23:21 -29.17447 -63.52980 37099 ft 538 kts 158°
2026-04-23 23:21 -29.23839 -63.48500 37099 ft 538 kts 158°
2026-04-23 23:22 -29.30232 -63.44014 37125 ft 539 kts 158°
2026-04-23 23:22 -29.36596 -63.39540 37114 ft 539 kts 158°
2026-04-23 23:23 -29.42995 -63.35035 37092 ft 539 kts 158°
2026-04-23 23:23 -29.49387 -63.30511 37093 ft 539 kts 158°
2026-04-23 23:24 -29.55738 -63.26005 37113 ft 540 kts 158°